Regional Weather Roundup
Issued by NWS

Home | Current Version | Previous Version | Graphics & Text | Print | Product List | Glossary On
Versions: 1 2 3 4 5 6 7 8 9 10 11 12 13 14 15 16 17 18 19 20 21 22 23 24 25 26 27 28 29 30 31 32 33 34 35 36 37 38 39 40 41 42 43 44 45 46 47 48 49 50
000
ASUS43 KIND 202309
RWRIN

WEATHER ROUNDUP FOR INDIANA
NATIONAL WEATHER SERVICE INDIANAPOLIS IN
700 PM EDT WED AUG 20 2014

NOTE: "FAIR" INDICATES FEW OR NO CLOUDS BELOW 12,000 FEET WITH NO
SIGNIFICANT WEATHER AND/OR OBSTRUCTIONS TO VISIBILITY.

* - STATION DOES NOT REPORT WEATHER SUCH AS PRECIPITATION OR FOG.

+ - STATION NOT QUALITY CONTROLLED BY THE NATIONAL WEATHER SERVICE.
    USE DATA WITH CAUTION...ESPECIALLY DEWPOINT AND RELATIVE
    HUMIDITY OBSERVATIONS.

INZ001>003-010>013-019-020-210000-
NORTHWEST INDIANA

CITY           SKY/WX    TMP DP  RH WIND       PRES   REMARKS
GARY /AIRPORT/ MOSUNNY   86  64  48 W12       29.88R
KNOX *+        MOSUNNY   81  65  58 W5        29.88S
LA PORTE +     MOSUNNY   82  64  55 W7        29.90S
MICHIGAN CITY+ MOSUNNY   81  63  54 SW6       29.89R
MONTICELLO +   MOSUNNY   80  71  73 W7        29.89S
RENSSELAER +   PTSUNNY   81  72  74 SW8       29.90R
VALPARAISO     MOSUNNY   82  66  58 SW9       29.89S

$$

LMZ046-743>745-210000-
SOUTHERN LAKE MICHIGAN

STATION/POSITION TIME  TEMP WIND        PRES
                       AIR  DIR/SP/G
                 (UTC) (F)  (DEG/KT/KT) (MB)
BURNS HARBOR     2300   83  220/ 10/ 13   N/A
MICHIGAN CITY    2300   79  240/  6/  7   N/A

$$

INZ004-005-014>016-021>024-210000-
NORTH CENTRAL INDIANA

CITY           SKY/WX    TMP DP  RH WIND       PRES   REMARKS
ELKHART        SUNNY     82  63  51 W6        29.89
GOSHEN         SUNNY     84  65  52 W9        29.89S
LOGANSPORT +   MOSUNNY   81  66  61 W9        29.90S
PERU/GRISSOM   MOSUNNY   83  72  69 W12       29.90R
ROCHESTER +    MOSUNNY   84  68  58 W9        29.90R
SOUTH BEND     SUNNY     84  63  49 W7        29.89S
WARSAW +       MOSUNNY   82  64  54 W7        29.89S

$$

INZ006>009-017-018-025>027-210000-
NORTHEAST INDIANA

CITY           SKY/WX    TMP DP  RH WIND       PRES   REMARKS
ANGOLA *+      SUNNY     82  75  78 CALM      29.90S
AUBURN +       SUNNY     82  64  54 CALM      29.89F
FORT WAYNE     MOSUNNY   82  65  56 W6        29.89F
HUNTINGTON +   SUNNY     83  66  56 W6        29.89S

$$

INZ028-029-035-036-043>045-051>053-210000-
WEST CENTRAL INDIANA

CITY           SKY/WX    TMP DP  RH WIND       PRES   REMARKS
GREENCASTLE +  MOSUNNY   75  68  78 W5        29.95R
LAFAYETTE      MOSUNNY   80  68  66 SW8       29.89F
TERRE HAUTE    PTSUNNY   76  70  82 W6        29.94R

$$

INZ030>032-037>040-046>048-054>057-064-065-210000-
CENTRAL INDIANA

CITY           SKY/WX    TMP DP  RH WIND       PRES   REMARKS
CP ATTERBURY + PTSUNNY   79  68  69 SW3       29.95R
COLUMBUS       SUNNY     77  70  78 CALM      29.95R
FRANKFORT +    SUNNY     79  67  66 W10       29.93R
INDIANAPOLIS   PTSUNNY   79  66  64 SW8       29.93R
-EAGLE CREEK   MOSUNNY   79  64  60 W8        29.93R
KOKOMO *+      MOSUNNY   82  66  57 W10       29.90R
MARION +       SUNNY     82  65  56 W6        29.91S
MT COMFORT *+  SUNNY     79  61  53 S7        29.92F
SHELBYVILLE    MOSUNNY   79  66  64 SW5       29.92F
ZIONSVILLE +   SUNNY     80  64  57 W10       29.94R

$$

INZ033-034-041-042-049-050-058-059-210000-
EAST CENTRAL INDIANA

CITY           SKY/WX    TMP DP  RH WIND       PRES   REMARKS
MUNCIE         SUNNY     82  63  52 W7        29.91F

$$

INZ060-061-067>069-081>083-085>088-210000-
SOUTHWEST INDIANA

CITY           SKY/WX    TMP DP  RH WIND       PRES   REMARKS
EVANSVILLE     MOSUNNY   82  68  62 SE3       29.96F
WASHINGTON +   MOSUNNY   78  72  80 SW5       29.94S

$$

INZ062-063-066-070>080-084-089>092-210000-
SOUTH CENTRAL AND SOUTHEAST INDIANA

CITY           SKY/WX    TMP DP  RH WIND       PRES   REMARKS
BLOOMINGTON    MOSUNNY   78  68  71 SW6       29.94R

$$



USA.gov is the U.S. government's official web portal to all federal, state and local government web resources and services.